Location: Greenwich
(51.4790°N, 0.0090°E)
Time: 13:30:27
(UTC+01:00)

Altair - Pass Details

Date: 17 June 2025
Orbit: 1502 x 1682 km, 47.2° (Epoch: 19 July)

Event Time Altitude Azimuth Distance (km) Brightness Sun altitude
Rises 03:24:36 0° 262° (W) 4,678 9.6 -8.8°
Reaches altitude 10° 03:27:36 10° 260° (W) 3,715 9.1 -8.5°
Maximum altitude 03:36:56 70° 180° (S) 1,665 7.6 -7.7°
Drops below altitude 10° 03:46:39 10° 99° (E) 3,856 10.0 -6.8°
Sets 03:49:50 0° 98° (E) 4,864 10.6 -6.5°
